RADUGA 16 [-]

Last updated on July 6, 2021, 3:35 p.m. UTC

1 15946U 85070A   21186.84680955 -.00000239  00000-0  00000-0 0  9993
2 15946  12.5191 330.8289 0002861 106.8545  73.5596  1.00176162104100
UTC
Height (km)
Latitude
Longitude
Inclination
Orbital Period
UTC large
Height (km)
Speed (km/s)
/
Latitude / Longitude
Inclination (degrees)
Orbital Period (minutes)
Azimuth
Elevation
Range (km)
Doppler Factor
iOS Compass Heading
iOS Angle